sat.trackr.live / text

‹ back to catalog

STARLINK-6156

NORAD 56374 · 2023-061A

PAYLOAD ACTIVE UNKNOWN

§ Identity

Operator
Country
US
Launch date
2023-05-04
Launch site
AFETR
Launch vehicle
Mass (kg)
RCS (m²)

Purposes: comms

External: N2YO · Heavens-Above · Gunter

§ Orbital elements

Epoch: 2026-09-20T01:49:52.512672Z

Period
94.27 min
Inclination
43.0022°
Eccentricity
0.0000580
Mean motion
15.27575701 rev/d
Perigee alt
482.7 km
Apogee alt
483.5 km
Semi-major
6,861.2 km
B*
1.0917e-5
RAAN
180.5331°
Arg perigee
233.0203°
Mean anomaly
127.0595°
Rev number
18,757

§ Raw data

STARLINK-61561 56374U 23061A   26263.07630223  .00000039  00000+0  10917-4 0  99922 56374  43.0022 180.5331 0000580 233.0203 127.0595 15.27575701187572

JSON: /api/v1/satellites/56374 · /tle

For live sub-satellite position, see the globe view (requires WebGL).

§ Visibility from observer

Set your observer location to see the next 7 days of passes ≥ 10°. The values pass through the URL so the page stays shareable.

No JS? Fill the form by hand. The geolocation button needs JavaScript.